| time (UTC) | temp F | wind direction | speed knots | gust knots | rain 1hr in | rain 24hr in | rain mn in | humidity % | barometer mb |
| 20260506034016 | 38 | 88 | 2.6 | 3.5 | 0.00 | 0.00 | 0.00 | 86 | 1017.3 |
| 20260506032516 | 39 | 342 | 3.5 | 3.5 | 0.00 | 0.00 | 0.00 | 86 | 1017.2 |
| 20260506031016 | 39 | 17 | 1.7 | 2.6 | 0.00 | 0.00 | 0.00 | 86 | 1017.5 |
| 20260506025516 | 39 | 342 | 1.7 | 2.6 | 0.00 | 0.00 | 0.00 | 86 | 1017.3 |
| 20260506024016 | 40 | 35 | 1.7 | 2.6 | 0.00 | 0.00 | 0.00 | 85 | 1017.3 |
| 20260506022517 | 40 | 0 | 0.0 | 0.0 | 0.00 | 0.00 | 0.00 | 85 | 1017.3 |
| 20260506021016 | 40 | 0 | 0.0 | 0.0 | 0.00 | 0.00 | 0.00 | 84 | 1017.2 |
| 20260506015516 | 41 | 0 | 0.0 | 0.0 | 0.00 | 0.00 | 0.00 | 83 | 1017.2 |
| 20260506014016 | 42 | 0 | 0.0 | 0.0 | 0.00 | 0.00 | 0.00 | 82 | 1017.5 |
| 20260506012516 | 42 | 0 | 0.0 | 0.0 | 0.00 | 0.00 | 0.00 | 82 | 1017.5 |
| 20260506011017 | 42 | 0 | 0.0 | 0.0 | 0.00 | 0.00 | 0.00 | 82 | 1017.3 |
| 20260506005516 | 42 | 0 | 0.0 | 0.0 | 0.00 | 0.00 | 0.00 | 81 | 1017.7 |
| 20260506004016 | 42 | 0 | 0.0 | 0.0 | 0.00 | 0.00 | 0.00 | 82 | 1017.6 |
| 20260506002517 | 43 | 0 | 0.0 | 0.0 | 0.00 | 0.00 | 0.00 | 81 | 1017.6 |
| 20260506001016 | 43 | 0 | 0.0 | 0.0 | 0.00 | 0.00 | 0.00 | 81 | 1017.6 |
| 20260505235517 | 43 | 118 | 0.0 | 0.9 | 0.00 | 0.00 | 0.00 | 82 | 1017.7 |
| 20260505234017 | 43 | 0 | 0.0 | 0.0 | 0.00 | 0.00 | 0.00 | 81 | 1017.6 |
| 20260505232516 | 43 | 0 | 0.0 | 0.0 | 0.00 | 0.00 | 0.00 | 81 | 1017.9 |
| 20260505231016 | 43 | 114 | 0.9 | 1.7 | 0.00 | 0.00 | 0.00 | 80 | 1017.8 |
| 20260505225516 | 43 | 96 | 0.9 | 0.9 | 0.00 | 0.00 | 0.00 | 81 | 1017.9 |
| 20260505224016 | 44 | 83 | 0.0 | 0.9 | 0.00 | 0.00 | 0.00 | 80 | 1018.0 |
| 20260505222516 | 44 | 106 | 0.9 | 1.7 | 0.00 | 0.00 | 0.00 | 81 | 1018.1 |
| 20260505221016 | 44 | 110 | 0.9 | 1.7 | 0.00 | 0.00 | 0.00 | 81 | 1017.7 |
| 20260505215516 | 44 | 128 | 0.0 | 0.9 | 0.00 | 0.00 | 0.00 | 80 | 1018.2 |
| 20260505214016 | 44 | 111 | 0.0 | 0.9 | 0.00 | 0.00 | 0.00 | 79 | 1017.8 |
| 20260505212516 | 45 | 83 | 1.7 | 1.7 | 0.00 | 0.00 | 0.00 | 79 | 1017.9 |
| 20260505211016 | 45 | 82 | 0.9 | 1.7 | 0.00 | 0.00 | 0.00 | 79 | 1017.9 |
| 20260505205516 | 45 | 112 | 0.0 | 0.9 | 0.00 | 0.00 | 0.00 | 79 | 1017.6 |
| 20260505204016 | 45 | 72 | 0.9 | 1.7 | 0.00 | 0.00 | 0.00 | 78 | 1017.7 |
| 20260505202516 | 45 | 72 | 0.9 | 1.7 | 0.00 | 0.00 | 0.00 | 78 | 1017.7 |
| 20260505201016 | 46 | 0 | 0.0 | 0.0 | 0.00 | 0.00 | 0.00 | 80 | 1017.4 |
| 20260505195516 | 46 | 74 | 1.7 | 2.6 | 0.00 | 0.00 | 0.00 | 79 | 1017.2 |
| 20260505194016 | 46 | 100 | 1.7 | 2.6 | 0.00 | 0.00 | 0.00 | 79 | 1017.2 |
| 20260505192516 | 46 | 88 | 1.7 | 2.6 | 0.00 | 0.00 | 0.00 | 78 | 1017.3 |
| 20260505191016 | 47 | 106 | 0.9 | 0.9 | 0.00 | 0.00 | 0.00 | 80 | 1017.1 |
| 20260505185516 | 47 | 86 | 1.7 | 2.6 | 0.00 | 0.00 | 0.00 | 79 | 1016.9 |
| 20260505184016 | 47 | 75 | 1.7 | 1.7 | 0.00 | 0.00 | 0.00 | 80 | 1016.9 |
| 20260505182516 | 47 | 69 | 3.5 | 7.0 | 0.00 | 0.00 | 0.00 | 79 | 1016.8 |
| 20260505181016 | 48 | 41 | 2.6 | 3.5 | 0.00 | 0.00 | 0.00 | 76 | 1016.4 |
| 20260505175516 | 48 | 39 | 2.6 | 2.6 | 0.00 | 0.00 | 0.00 | 76 | 1016.6 |
| 20260505174016 | 49 | 17 | 1.7 | 2.6 | 0.00 | 0.00 | 0.00 | 77 | 1016.5 |
| 20260505172516 | 51 | 126 | 1.7 | 2.6 | 0.00 | 0.00 | 0.00 | 77 | 1016.4 |
| 20260505171016 | 51 | 126 | 1.7 | 2.6 | 0.00 | 0.00 | 0.00 | 77 | 1016.4 |
| 20260505165516 | 51 | 126 | 1.7 | 2.6 | 0.00 | 0.00 | 0.00 | 77 | 1016.4 |
| 20260505164016 | 51 | 126 | 1.7 | 2.6 | 0.00 | 0.00 | 0.00 | 77 | 1016.4 |
| 20260505162516 | 51 | 126 | 1.7 | 2.6 | 0.00 | 0.00 | 0.00 | 77 | 1016.4 |
| 20260505161016 | 51 | 126 | 1.7 | 2.6 | 0.00 | 0.00 | 0.00 | 77 | 1016.4 |
| 20260505152516 | 51 | 81 | 1.7 | 3.5 | 0.00 | 0.00 | 0.00 | 76 | 1016.3 |
| 20260505151016 | 54 | 95 | 0.9 | 1.7 | 0.00 | 0.00 | 0.00 | 66 | 1015.9 |
| 20260505124016 | 52 | 349 | 5.2 | 6.1 | 0.00 | 0.00 | 0.00 | 66 | 1016.0 |
| 20260505122516 | 52 | 360 | 4.3 | 7.0 | 0.00 | 0.00 | 0.00 | 67 | 1016.0 |
| 20260505121016 | 52 | 355 | 3.5 | 3.5 | 0.00 | 0.00 | 0.00 | 68 | 1016.1 |
| 20260505115516 | 51 | 357 | 4.3 | 6.1 | 0.00 | 0.00 | 0.00 | 69 | 1016.0 |
| 20260505114016 | 52 | 79 | 2.6 | 5.2 | 0.00 | 0.00 | 0.00 | 67 | 1016.3 |
| 20260505112516 | 52 | 335 | 3.5 | 5.2 | 0.00 | 0.00 | 0.00 | 66 | 1016.0 |
| 20260505111016 | 52 | 332 | 2.6 | 3.5 | 0.00 | 0.00 | 0.00 | 66 | 1016.2 |
| 20260505101016 | 51 | 296 | 3.5 | 3.5 | 0.00 | 0.00 | 0.00 | 65 | 1016.1 |
| 20260505095516 | 51 | 342 | 6.1 | 7.0 | 0.00 | 0.00 | 0.00 | 65 | 1016.0 |
| 20260505094016 | 51 | 36 | 3.5 | 5.2 | 0.00 | 0.00 | 0.00 | 65 | 1016.3 |
| 20260505092516 | 50 | 45 | 2.6 | 5.2 | 0.00 | 0.00 | 0.00 | 66 | 1016.2 |
| 20260505091016 | 50 | 345 | 5.2 | 7.0 | 0.00 | 0.00 | 0.00 | 68 | 1016.3 |
| 20260505085516 | 50 | 344 | 4.3 | 7.0 | 0.00 | 0.00 | 0.00 | 71 | 1016.4 |
| 20260505084016 | 51 | 353 | 4.3 | 6.1 | 0.00 | 0.00 | 0.00 | 68 | 1016.4 |
| 20260505082516 | 51 | 19 | 5.2 | 6.1 | 0.00 | 0.00 | 0.00 | 66 | 1016.2 |
| 20260505081016 | 51 | 347 | 5.2 | 7.8 | 0.00 | 0.00 | 0.00 | 68 | 1016.4 |
| 20260505075516 | 50 | 345 | 5.2 | 8.7 | 0.00 | 0.00 | 0.00 | 74 | 1016.2 |
| 20260505074016 | 48 | 355 | 5.2 | 7.0 | 0.00 | 0.00 | 0.00 | 77 | 1016.3 |
| 20260505072516 | 48 | 355 | 6.1 | 7.0 | 0.00 | 0.00 | 0.00 | 78 | 1016.3 |
| 20260505071016 | 47 | 327 | 5.2 | 7.0 | 0.00 | 0.00 | 0.00 | 80 | 1016.1 |
| 20260505065516 | 46 | 8 | 3.5 | 5.2 | 0.00 | 0.00 | 0.00 | 81 | 1016.6 |
| 20260505064016 | 46 | 36 | 3.5 | 5.2 | 0.00 | 0.00 | 0.00 | 81 | 1016.5 |
| 20260505062516 | 45 | 287 | 2.6 | 5.2 | 0.00 | 0.00 | 0.00 | 85 | 1016.4 |
| 20260505061016 | 44 | 234 | 2.6 | 3.5 | 0.00 | 0.00 | 0.00 | 86 | 1016.7 |
| 20260505055516 | 43 | 289 | 2.6 | 5.2 | 0.00 | 0.00 | 0.00 | 88 | 1016.4 |
| 20260505054016 | 43 | 289 | 2.6 | 5.2 | 0.00 | 0.00 | 0.00 | 88 | 1016.4 |
| 20260505052516 | 43 | 260 | 3.5 | 5.2 | 0.00 | 0.00 | 0.00 | 88 | 1016.3 |
| 20260505051016 | 43 | 254 | 1.7 | 3.5 | 0.00 | 0.00 | 0.00 | 88 | 1016.3 |
| 20260505041016 | 42 | 223 | 1.7 | 2.6 | 0.00 | 0.00 | 0.00 | 90 | 1016.0 |
| 20260505035516 | 43 | 265 | 1.7 | 2.6 | 0.00 | 0.00 | 0.00 | 90 | 1016.0 |